Terminal Aerodrome Forecast
Issued by NWS Miami, FL

Home | Current Version | Previous Version | Text Only | Print | Product List | Glossary On
Versions: 1 2 3 4 5 6 7 8 9 10 11 12 13 14 15 16 17 18 19 20 21 22 23 24 25 26 27 28 29 30 31 32 33 34 35 36 37 38 39 40 41 42 43 44
000
FTUS42 KMFL 230953 AAB
TAFFLL
TAF AMD
KFLL 230953Z 2310/2406 VRB03KT P6SM -SHRA SCT015 BKN060 BKN070
      TEMPO 2310/2312 RA BKN025
     FM231400 07010KT P6SM SHRA VCTS BKN035CB OVC150
     FM240000 08010KT P6SM VCSH BKN035=

USA.gov is the U.S. government's official web portal to all federal, state and local government web resources and services.